Find Starlink 34184

NORAD ID: 64024 Int'l Des: 2025-102 Owner: SPXS Country: US Constellation: starlink operational
LEOCIRCULAR

当前视图

正在加载3D地球...

关于 Starlink 34184

正在加载描述...

即将过境

Passes for default location (London). Set your location on the main map for personalized predictions.

高度历史

Loading altitude history...

两行轨道根数

1 64024U 25102C 26145.65690506 .00002472 00000-0 21484-3 0 9998
2 64024 70.0002 280.2875 0002840 269.3880 90.6953 14.98335385 57372
Epoch: May 25, 2026 • Age: 18 hours

当前状态

高度 574.1 km
速度 7.57 km/s
星下点 4.49°N, 60.19°E
发射日期 May 16, 2025
运行时间 1 years
类型 internet

技术详情

分类 Payload
质量 575.00 kg
干质量 530.00 kg
总质量 575.00 kg
长度 0.30 m
直径 4.10 m
跨度 29.00 m
形状 Box + pan
制造商 SPXS
平台类型 Starlink V2MO
阶段状态 In Orbit
所有者/国家 SPXS/US

Most Searched